Lid_Strength_Index
-1 -1 -1 -1 -1 -1 -1 -1 -1 -1 -0 1 -0 -1 -1 -1 -1 2 6 4 3 0 1 7 8 8 8 9 9 10 13 14 13 13 13 12 12 12 10 10 9 10 9 7 4
-1 -1 -1 -1 -1 -1 -1 -0 -0 -1 -0 -0 -0 -0 -1 -1 3 5 1 -1 -1 -0 7 8 9 9 10 10 10 11 14 13 12 13 12 11 12 11 10 11 9 9 7 4 4
-1 -1 -1 -1 -1 -1 -0 -0 0 0 -0 0 -0 -1 -1 0 5 7 -1 -1 -1 1 7 8 8 9 11 11 11 12 13 12 12 12 11 11 12 11 11 12 10 10 8 5 6
-1 -1 -1 -1 -1 -1 0 0 0 1 1 -0 0 -0 -1 2 13 5 -1 -1 -1 5 6 8 9 11 11 12 11 12 12 12 11 11 12 12 11 12 11 10 10 10 8 5 6
-1 -1 -1 -1 -1 -1 -0 1 0 0 1 -0 -1 -1 2 7 8 4 -0 1 5 6 7 9 10 11 12 12 12 14 12 12 11 12 12 11 13 12 12 11 11 10 6 5 5
-1 -1 -1 -1 -1 -1 -1 0 0 -0 -0 -0 -1 -1 6 11 4 3 4 5 6 7 8 9 9 10 11 12 13 12 12 12 12 12 12 13 13 13 13 12 12 11 9 6 5
-1 -1 -1 -1 -1 -1 -1 -0 -0 0 1 1 -0 1 6 9 4 5 5 5 5 7 8 7 8 10 10 11 11 11 13 13 13 12 13 12 14 12 13 12 13 12 12 10 6
-1 -1 -1 -1 -1 -1 -1 -0 -0 -0 1 0 -0 4 10 4 4 5 5 6 6 6 6 7 7 8 10 10 11 13 15 17 15 12 13 13 16 14 12 12 12 12 12 12 11
-1 -1 -0 -1 -1 -1 -0 -0 -0 -0 -0 0 4 8 10 3 5 4 6 6 6 6 6 6 8 10 11 13 15 15 18 17 15 12 13 13 15 13 12 12 12 13 12 11 11
0 0 -0 -1 -1 -1 -0 0 -0 0 0 2 4 10 8 9 5 5 6 6 7 7 8 9 11 13 15 15 18 17 17 17 17 14 13 14 14 12 12 13 12 12 12 12 11
1 0 0 -0 -0 -0 1 6 8 9 6 10 10 11 9 6 4 6 6 7 8 10 12 11 13 15 13 14 15 15 17 17 16 14 14 14 14 13 12 13 13 13 12 12 12
1 1 1 1 0 -0 3 8 9 8 10 7 7 8 6 5 9 8 6 9 11 13 12 13 15 12 12 13 14 15 16 16 16 14 14 15 15 13 13 12 12 12 12 13 13
1 1 1 1 0 3 4 5 2 4 11 9 7 8 7 6 9 8 7 9 12 12 13 14 13 12 13 15 15 16 17 17 17 16 16 17 17 16 15 14 13 12 13 13 12
0 1 1 1 3 3 5 3 2 5 14 12 9 8 7 7 11 7 8 9 12 13 13 14 12 13 14 15 15 17 14 14 15 16 19 17 21 18 16 14 14 13 14 13 13
3 1 1 1 4 5 4 2 2 8 19 11 10 6 7 10 11 10 7 10 12 12 12 14 13 13 15 14 13 15 13 14 16 18 18 19 19 18 17 15 14 14 12 13 12
4 3 1 2 3 4 3 2 5 14 21 13 9 10 11 11 10 10 9 9 10 12 13 14 12 12 13 13 13 13 15 15 17 18 21 19 19 19 18 16 14 15 12 12 12
5 3 3 3 4 4 3 6 15 19 13 13 12 11 12 12 11 12 11 12 14 16 16 14 14 12 12 14 13 15 16 19 21 21 21 20 19 18 16 15 15 13 12 12 12
4 5 4 4 4 3 4 11 20 16 15 12 12 12 13 12 12 12 13 14 13 15 16 17 17 13 12 13 14 15 15 19 23 23 21 18 20 17 15 13 12 12 12 12 12
5 6 5 4 4 4 8 16 17 16 13 12 12 15 15 13 13 13 14 14 12 14 15 17 17 14 13 13 11 15 17 15 19 26 22 19 18 15 14 13 13 12 12 12 12
9 9 7 4 3 6 11 15 14 11 10 12 15 14 16 15 14 14 14 12 13 12 13 14 17 14 13 12 12 14 13 17 18 24 25 21 20 18 15 14 13 13 12 12 12
9 12 6 3 5 10 14 15 12 10 9 11 13 14 15 14 14 15 15 13 12 12 12 14 15 15 14 14 15 15 16 16 16 18 22 24 20 16 15 13 13 13 12 12 12
10 15 6 4 12 13 14 12 10 11 9 10 10 12 14 14 15 15 15 14 11 12 13 13 14 17 16 14 13 14 15 15 18 19 19 19 18 14 13 12 12 11 11 12 12
12 11 6 5 14 13 12 12 10 11 10 10 11 10 10 13 15 14 14 11 11 12 14 13 16 21 17 16 15 15 15 14 15 16 18 20 18 13 13 12 12 12 12 11 11
12 13 10 8 10 12 13 13 13 9 10 10 11 10 10 12 11 13 13 11 10 11 9 10 15 16 18 17 14 15 15 14 14 18 16 17 17 14 13 12 12 12 12 12 12
10 14 12 13 11 12 13 13 13 13 9 9 11 12 12 14 13 13 11 11 10 9 10 11 16 16 16 16 16 16 15 15 14 13 16 15 16 13 12 12 12 12 13 12 12
14 13 11 14 12 12 13 14 13 12 11 12 12 11 12 13 12 13 11 11 12 10 11 11 16 14 16 14 15 17 16 16 14 14 16 16 16 13 12 12 12 12 12 13 13
10 9 9 13 14 12 13 14 14 12 11 10 10 10 11 11 10 10 9 10 10 12 13 13 14 15 16 14 15 16 15 15 15 14 14 16 13 12 13 12 13 13 13 13 13